{"data":{"norad_id":68201,"epoch":"2026-05-25T03:53:57.713856Z","epoch_age_seconds":71566,"freshness":"FRESH","line1":"1 68201U 26052D   26145.16247354  .00005241  00000+0  31622-3 0  9990","line2":"2 68201  97.5343 220.3399 0012280  35.0953 325.1084 15.11103765 10572","mean_motion":15.11103765,"eccentricity":0.001228,"inclination_deg":97.5343,"raan_deg":220.3399,"arg_perigee_deg":35.0953,"mean_anomaly_deg":325.1084,"bstar":0.00031622,"rev_number":1057,"period_min":95.294580911854,"perigee_km":524.34593400582,"apogee_km":541.31927535492,"semimajor_km":6910.9696046804,"source":"CELESTRAK","updated_at":"2026-05-25T13:38:07.642863Z"}}